Location: Sternwarte_Laufen
(47.9344°N, 12.9346°E)
Time: 21:39:29
(UTC+01:00)

Tiangong 1 - Visible Passes

Search period start: 23 November 2017 00:00
Search period end: 03 December 2017 00:00
Orbit: 283 x 308 km, 42.8° (Epoch: 23 November)

Date Brightness Start Highest point End Pass type
(mag) Time Alt. Az. Time Alt. Az. Time Alt. Az.
26 Nov 3.3 17:55:26 10° S 17:56:09 11° SSE 17:56:12 11° SSE visible
27 Nov 2.9 18:00:24 10° SSW 18:02:04 16° SSE 18:02:05 16° SSE visible
28 Nov 2.6 18:05:52 10° SW 18:07:48 20° S 18:07:48 20° S visible
29 Nov 2.4 18:11:25 10° SW 18:13:21 24° S 18:13:21 24° S visible
30 Nov 2.5 18:16:57 10° WSW 18:18:47 24° SSW 18:18:47 24° SSW visible
01 Dec 2.8 18:22:26 10° WSW 18:24:05 22° SSW 18:24:05 22° SSW visible
02 Dec 2.5 16:53:22 10° SW 16:55:35 24° S 16:57:46 10° ESE visible
02 Dec 3.2 18:27:53 10° WSW 18:29:18 18° SSW 18:29:18 18° SSW visible
